Location: Antoign�
(47.0844°N, 0.1131°W)
Time: 21:55:44
(UTC+00:00)

Meteor 1-14 Rocket - Pass Details

Date: 03 March 2021
Orbit: 834 x 918 km, 81.3° (Epoch: 20 April)

Event Time Altitude Azimuth Distance (km) Brightness Sun altitude
Rises 19:20:54 0° 194° (SSW) 3,397 7.4 -16.4°
Reaches altitude 10° 19:23:19 10° 197° (SSW) 2,457 6.7 -16.8°
Maximum altitude 19:28:52 74° 282° (WNW) 872 4.4 -17.8°
Drops below altitude 10° 19:34:25 10° 8° (N) 2,457 6.6 -18.7°
Sets 19:36:51 0° 10° (N) 3,397 7.4 -19.1°
